Skagway, AK

4:19 AM AKST on November 18, 2017 (GMT -0900)
Skagway

Weather History for PAGY - January, 2014

Change the Weather History Date:

Wednesday, January 15, 2014

  Actual Average Record
Temperature  
Mean Temperature 41 °F -  
Max Temperature 43 °F 27 °F 45 °F (2017)
Min Temperature 39 °F 20 °F -10 °F (1969)
Degree Days  
Heating Degree Days 24    
Moisture  
Dew Point 32 °F    
Average Humidity 69    
Maximum Humidity 73    
Minimum Humidity 60    
Precipitation  
Precipitation 0.00 in - - ()
Sea Level Pressure  
Sea Level Pressure 30.11 in    
Wind  
Wind Speed 27 mph (SSW)    
Max Wind Speed 37 mph    
Max Gust Speed 50 mph    
Visibility 10 miles    
Events      
Averages and records for this station are not official NWS values.
T = Trace of Precipitation, MM = Missing Value Source: NWS Daily Summary

Daily Weather History Graph

Daily Weather History Graph

Search for Another Location

Airport or City:

Trip Planner

Search our weather history database for the weather conditions in past years. The results will help you decide how hot, cold, wet, or windy it might be!

Date:

Astronomy

Jan. 15, 2014 Rise Set
Actual Time 8:44 AM AKST 3:37 PM AKST
Civil Twilight 7:53 AM AKST 4:29 PM AKST
Nautical Twilight 7:00 AM AKST 5:22 PM AKST
Astronomical Twilight 6:10 AM AKST 6:11 PM AKST
Moon 4:00 PM AKST (1/15) 7:49 AM AKST (1/15)
Length of Visible Light 8h 36m
Length of Day
6h 53m
Full, 100% of the Moon is Illuminated
Jan 15
Full
Jan 15
Full
Jan 23
Last Quarter
Jan 30
New
Feb 6
First Quarter

Hourly Weather History & Observations

Time (AKST) Temp. Windchill Dew Point Humidity Pressure Visibility Wind Dir Wind Speed Gust Speed Precip Events Conditions
12:53 AM 42.1 °F 31.5 °F 28.9 °F 60% 29.97 in 10.0 mi SW 28.8 mph 35.7 mph N/A   Mostly Cloudy
1:53 AM 41.0 °F 29.8 °F 30.0 °F 65% 30.00 in 10.0 mi SW 29.9 mph - N/A   Clear
3:53 AM 41.0 °F 31.4 °F 30.0 °F 65% 30.05 in 10.0 mi SSW 21.9 mph - N/A   Partly Cloudy
4:53 AM 41.0 °F 31.6 °F 28.9 °F 62% 30.06 in 10.0 mi SSW 20.7 mph 27.6 mph N/A   Partly Cloudy
5:53 AM 42.1 °F 35.2 °F 28.9 °F 60% 30.09 in 10.0 mi SSW 12.7 mph 26.5 mph N/A   Partly Cloudy
6:53 AM 39.9 °F 30.2 °F 30.9 °F 70% 30.11 in 10.0 mi SSW 20.7 mph 32.2 mph N/A   Overcast
7:53 AM 39.9 °F 28.4 °F 32.0 °F 73% 30.11 in 10.0 mi SSW 29.9 mph 40.3 mph N/A   Overcast
8:53 AM 41.0 °F 29.7 °F 33.1 °F 73% 30.10 in 10.0 mi SSW 31.1 mph 41.4 mph N/A   Overcast
9:53 AM 41.0 °F 29.3 °F 33.1 °F 73% 30.10 in 10.0 mi SSW 33.4 mph 49.5 mph N/A   Overcast
10:53 AM 42.1 °F 30.8 °F 33.1 °F 70% 30.12 in 10.0 mi SSW 33.4 mph 48.3 mph N/A   Overcast
11:53 AM 42.1 °F 31.0 °F 33.1 °F 70% 30.10 in 10.0 mi SSW 32.2 mph 46.0 mph N/A   Overcast
12:53 PM 42.1 °F 30.8 °F 34.0 °F 73% 30.12 in 10.0 mi SSW 33.4 mph 48.3 mph N/A   Overcast
1:53 PM 43.0 °F 31.8 °F 33.1 °F 68% 30.09 in 10.0 mi SSW 34.5 mph 41.4 mph N/A   Overcast
2:53 PM 42.1 °F 31.0 °F 33.1 °F 70% 30.13 in 10.0 mi SSW 32.2 mph 48.3 mph N/A   Overcast
3:53 PM 43.0 °F 31.5 °F 34.0 °F 71% 30.14 in 10.0 mi SW 36.8 mph 44.9 mph N/A   Overcast
4:53 PM 43.0 °F 32.2 °F 34.0 °F 71% 30.15 in 10.0 mi SSW 32.2 mph 47.2 mph N/A   Overcast
5:53 PM 43.0 °F 32.9 °F 34.0 °F 71% 30.17 in 10.0 mi SSW 27.6 mph 40.3 mph N/A   Overcast
6:53 PM 43.0 °F 33.5 °F 34.0 °F 71% 30.16 in 10.0 mi SSW 24.2 mph 28.8 mph N/A   Overcast
7:53 PM 43.0 °F 32.7 °F 33.1 °F 68% 30.15 in 10.0 mi SSW 28.8 mph 34.5 mph N/A   Overcast
8:53 PM 43.0 °F 33.8 °F 33.1 °F 68% 30.16 in 10.0 mi SSW 23.0 mph 32.2 mph N/A   Overcast
9:53 PM 43.0 °F 35.1 °F 33.1 °F 68% 30.16 in 10.0 mi SSW 17.3 mph - N/A   Scattered Clouds
11:53 PM - - - N/A% 30.13 in - North - - N/A   Unknown